Omak, WA

6:59 AM PST on January 21, 2018 (GMT -0800)
Omak

Weather History for KOMK - February, 2013

Change the Weather History Date:

Sunday, February 24, 2013

  Actual Average Record
Temperature  
Mean Temperature 31 °F 34 °F  
Max Temperature 39 °F 43 °F 59 °F (1968)
Min Temperature 23 °F 25 °F 5 °F (1952)
Degree Days  
Heating Degree Days 34 31  
Month to date heating degree days 844 807  
Since 1 July heating degree days 4525 4740  
Cooling Degree Days 0 0  
Month to date cooling degree days 0 0  
Year to date cooling degree days 0 0  
Moisture  
Dew Point 25 °F    
Average Humidity 73    
Maximum Humidity 81    
Minimum Humidity 64    
Precipitation  
Precipitation 0.00 in 0.05 in 0.65 in (1958)
Month to date precipitation 0.05 1.21  
Year to date precipitation 0.65 3.10  
Sea Level Pressure  
Sea Level Pressure 30.23 in    
Wind  
Wind Speed 5 mph (SSW)    
Max Wind Speed 12 mph    
Max Gust Speed 15 mph    
Visibility 10 miles    
Events      
T = Trace of Precipitation, MM = Missing Value Source: NWS Daily Summary

Daily Weather History Graph

Daily Weather History Graph

Search for Another Location

Airport or City:

Trip Planner

Search our weather history database for the weather conditions in past years. The results will help you decide how hot, cold, wet, or windy it might be!

Date:

Astronomy

Feb. 24, 2013 Rise Set
Actual Time 6:48 AM PST 5:34 PM PST
Civil Twilight 6:16 AM PST 6:06 PM PST
Nautical Twilight 5:40 AM PST 6:42 PM PST
Astronomical Twilight 5:04 AM PST 7:19 PM PST
Moon 4:51 PM PST (2/24) 5:50 AM PST (2/24)
Length of Visible Light 11h 49m
Length of Day
10h 46m
Waxing Gibbous, 99% of the Moon is Illuminated
Feb 24
Waxing Gibbous
Feb 25
Full
Mar 4
Last Quarter
Mar 11
New
Mar 19
First Quarter

Hourly Weather History & Observations

Time (PST) Temp. Windchill Dew Point Humidity Pressure Visibility Wind Dir Wind Speed Gust Speed Precip Events Conditions
12:53 AM 24.1 °F - 18.0 °F 77% 30.27 in 10.0 mi Calm Calm - N/A   Clear
1:53 AM 24.1 °F - 19.0 °F 81% 30.28 in 10.0 mi Calm Calm - N/A   Partly Cloudy
2:53 AM 24.1 °F 19.7 °F 18.0 °F 77% 30.27 in 10.0 mi West 3.5 mph - N/A   Partly Cloudy
3:53 AM 26.1 °F 18.4 °F 19.0 °F 75% 30.26 in 10.0 mi WNW 6.9 mph - N/A   Mostly Cloudy
4:53 AM 25.0 °F - 19.0 °F 78% 30.26 in 10.0 mi Calm Calm - N/A   Mostly Cloudy
5:53 AM 28.9 °F 22.8 °F 21.0 °F 72% 30.27 in 10.0 mi SW 5.8 mph - N/A   Overcast
6:53 AM 28.9 °F - 21.0 °F 72% 30.27 in 10.0 mi Calm Calm - N/A   Overcast
7:53 AM 30.9 °F - 23.0 °F 72% 30.28 in 10.0 mi Calm Calm - N/A   Mostly Cloudy
8:53 AM 32.0 °F - 23.0 °F 69% 30.29 in 10.0 mi Calm Calm - N/A   Partly Cloudy
9:53 AM 34.0 °F - 24.1 °F 67% 30.30 in 10.0 mi Calm Calm - N/A   Clear
10:53 AM 36.0 °F 33.3 °F 25.0 °F 64% 30.29 in 10.0 mi South 3.5 mph - N/A   Scattered Clouds
11:53 AM 36.0 °F 32.1 °F 26.1 °F 67% 30.29 in 10.0 mi South 4.6 mph - N/A   Overcast
12:53 PM 37.0 °F 31.0 °F 27.0 °F 67% 30.27 in 10.0 mi SSW 8.1 mph - N/A   Mostly Cloudy
1:53 PM 37.9 °F 32.7 °F 28.0 °F 68% 30.26 in 10.0 mi SSW 6.9 mph - N/A   Clear
2:53 PM 37.9 °F 32.7 °F 28.0 °F 68% 30.25 in 10.0 mi South 6.9 mph - N/A   Mostly Cloudy
3:53 PM 37.9 °F 32.7 °F 28.0 °F 68% 30.25 in 10.0 mi SW 6.9 mph - N/A   Overcast
4:53 PM 39.0 °F 34.8 °F 28.9 °F 67% 30.22 in 10.0 mi SW 5.8 mph - N/A   Clear
5:53 PM 37.0 °F 31.0 °F 28.0 °F 70% 30.20 in 10.0 mi SSW 8.1 mph - N/A   Overcast
6:53 PM 37.9 °F 32.1 °F 28.0 °F 68% 30.19 in 10.0 mi South 8.1 mph - N/A   Overcast
7:53 PM 36.0 °F 31.1 °F 28.0 °F 73% 30.15 in 10.0 mi South 5.8 mph - N/A   Overcast
8:53 PM 36.0 °F 31.1 °F 28.0 °F 73% 30.12 in 10.0 mi SSW 5.8 mph - N/A   Overcast
9:53 PM 36.0 °F 31.1 °F 28.0 °F 73% 30.09 in 10.0 mi South 5.8 mph - N/A   Overcast
10:53 PM 37.9 °F 32.1 °F 27.0 °F 65% 30.06 in 10.0 mi South 8.1 mph - N/A   Overcast
11:53 PM 37.0 °F 31.6 °F 27.0 °F 67% 30.04 in 10.0 mi SSW 6.9 mph - N/A   Overcast